Date String (YYYY-MM-DD hh:mm:ss) UTC,Instrument flags,absolute air pressure of the measurement (hPa),sample flow rate (lpm),inlet stack bypass flow (lpm),air temperature of the measurement (°C),ambient temperature measured by the external sensor (°C),aerosol sample conditioner tube jacket temperature (°C),OPC LED temperature (°C),internal box temperature (°C),relative humidity of the measurement (%),span deviation,mass concentration of particles derived from Lorenz-Mie calculation of OPC scattering (μg/m³),mass concentration of particles derived from Lorenz-Mie calculation of OPC scattering (μg/m³),mass concentration of particles derived from Lorenz-Mie calculation of OPC scattering (μg/m³)
DateTimeUTC,F1_M11,P_M11,Q1_M11,Q2_M11,T1_M11,T2_M11,T3_M11,T4_M11,T5_M11,U1_M11,ZSPAN_M11,X0_M11,X2_M11,X1_M11
2024-06-04 03:00:00,SystemResetWarning,0821.2,4.99,000.00,029.3,027.1,000.0,037.9,030.5,015.6,0000.0,0009.68,0004.18,0003.32
2024-06-04 03:01:00,SystemResetWarning,0821.2,5.00,000.00,029.3,027.5,000.0,037.8,030.8,015.6,0000.0,0009.79,0004.17,0003.32
2024-06-04 03:02:00,SystemResetWarning,0821.3,5.00,000.00,029.3,027.8,000.0,037.8,030.9,015.5,0000.0,0010.83,0004.20,0003.32
2024-06-04 03:03:00,SystemResetWarning,0821.3,5.00,000.00,029.4,028.1,000.0,037.8,031.1,015.5,0000.0,0012.05,0004.22,0003.33
2024-06-04 03:04:00,SystemResetWarning,0821.3,5.00,000.00,029.5,028.4,000.0,037.8,031.2,015.5,0000.0,0012.43,0004.18,0003.33
2024-06-04 03:05:00,SystemResetWarning,0821.3,5.00,000.00,029.5,028.6,000.0,037.8,031.2,015.5,0000.0,0012.16,0004.16,0003.33
2024-06-04 03:06:00,SystemResetWarning,0821.3,5.00,000.00,029.6,028.8,000.0,037.8,031.3,015.5,0000.0,0012.30,0004.18,0003.33
2024-06-04 03:07:00,SystemResetWarning,0821.4,5.00,000.00,029.6,028.9,000.0,037.8,031.4,015.5,0000.0,0012.31,0004.22,0003.33
2024-06-04 03:08:00,SystemResetWarning,0821.3,5.00,000.00,029.7,029.0,000.0,037.8,031.5,015.5,0000.0,0012.61,0004.21,0003.33
2024-06-04 03:09:00,SystemResetWarning,0821.3,4.99,000.00,029.7,029.2,000.0,037.8,031.5,015.5,0000.0,0012.87,0004.23,0003.34
2024-06-04 03:10:00,SystemResetWarning,0821.3,4.99,000.00,029.8,029.3,000.0,037.9,031.6,015.5,0000.0,0012.78,0004.26,0003.32
2024-06-04 03:11:00,SystemResetWarning,0821.4,4.99,000.00,029.8,029.3,000.0,037.9,031.7,015.5,0000.0,0013.12,0004.28,0003.32
2024-06-04 03:12:00,SystemResetWarning,0821.3,4.99,000.00,029.9,029.4,000.0,037.9,031.7,015.5,0000.0,0013.20,0004.34,0003.33
2024-06-04 03:13:00,SystemResetWarning,0821.4,5.01,000.00,029.9,029.5,000.0,038.0,031.8,015.5,0000.0,0012.53,0004.36,0003.34
2024-06-04 03:14:00,SystemResetWarning,0821.7,5.01,000.00,030.0,029.6,000.0,038.0,031.8,015.5,0000.0,0011.40,0004.39,0003.33
2024-06-04 03:15:00,SystemResetWarning,0821.7,5.00,000.00,030.0,029.2,000.0,038.1,031.6,015.5,0000.0,0011.36,0004.43,0003.34
2024-06-04 03:16:00,SystemResetWarning,0821.3,4.99,000.00,029.7,026.9,000.0,038.1,030.5,015.8,0000.0,0012.15,0004.43,0003.33
2024-06-04 03:17:00,SystemResetWarning,0821.3,5.02,000.00,029.4,026.4,000.0,038.1,030.2,016.2,0000.0,0012.22,0004.41,0003.32
2024-06-04 03:18:00,SystemResetWarning,0821.3,4.98,000.00,029.3,026.8,000.0,038.0,030.3,016.3,0000.0,0012.22,0004.37,0003.30
2024-06-04 03:19:00,SystemResetWarning,0821.3,5.00,000.00,029.3,027.2,000.0,037.9,030.6,016.4,0000.0,0012.04,0004.38,0003.28
2024-06-04 03:20:00,SystemResetWarning,0821.3,5.01,000.00,029.3,027.5,000.0,037.9,030.8,016.4,0000.0,0011.54,0004.36,0003.28
2024-06-04 03:21:00,SystemResetWarning,0821.3,5.00,000.00,029.4,027.9,000.0,037.8,030.9,016.3,0000.0,0011.88,0004.35,0003.28
2024-06-04 03:22:00,SystemResetWarning,0821.3,5.01,000.00,029.4,028.2,000.0,037.8,031.1,016.3,0000.0,0011.43,0004.37,0003.27
2024-06-04 03:23:00,SystemResetWarning,0821.3,5.00,000.00,029.5,028.4,000.0,037.8,031.2,016.3,0000.0,0011.07,0004.32,0003.26
2024-06-04 03:24:00,SystemResetWarning,0821.4,4.98,000.00,029.5,028.6,000.0,037.8,031.3,016.3,0000.0,0010.96,0004.26,0003.25
2024-06-04 03:25:00,SystemResetWarning,0821.4,5.00,000.00,029.6,028.8,000.0,037.8,031.3,016.3,0000.0,0011.54,0004.19,0003.23
2024-06-04 03:26:00,SystemResetWarning,0821.3,5.01,000.00,029.6,028.9,000.0,037.8,031.4,016.2,0000.0,0011.61,0004.16,0003.22
2024-06-04 03:27:00,SystemResetWarning,0821.3,5.00,000.00,029.7,029.0,000.0,037.8,031.5,016.3,0000.0,0011.79,0004.15,0003.20
2024-06-04 03:28:00,SystemResetWarning,0821.3,4.99,000.00,029.7,029.1,000.0,037.9,031.5,016.2,0000.0,0012.39,0004.11,0003.19
2024-06-04 03:29:00,SystemResetWarning,0821.4,5.00,000.00,029.8,029.2,000.0,037.9,031.6,016.1,0000.0,0012.55,0004.10,0003.20
2024-06-04 03:30:00,SystemResetWarning,0821.3,5.01,000.00,029.9,029.3,000.0,037.9,031.7,016.1,0000.0,0012.75,0004.11,0003.21
2024-06-04 03:31:00,SystemResetWarning,0821.3,5.01,000.00,029.9,029.4,000.0,038.0,031.7,016.1,0000.0,0013.01,0004.11,0003.19
2024-06-04 03:32:00,SystemResetWarning,0821.3,5.01,000.00,030.0,029.5,000.0,038.0,031.8,016.1,0000.0,0012.68,0004.09,0003.17
2024-06-04 03:33:00,SystemResetWarning,0821.3,5.01,000.00,030.0,029.5,000.0,038.0,031.8,015.9,0000.0,0013.29,0004.08,0003.16
2024-06-04 03:34:00,SystemResetWarning,0821.3,5.00,000.00,030.1,029.6,000.0,038.1,031.9,015.8,0000.0,0014.47,0004.12,0003.16
2024-06-04 03:35:00,SystemResetWarning,0821.3,4.99,000.00,030.1,029.6,000.0,038.1,031.9,015.8,0000.0,0016.02,0004.15,0003.16
2024-06-04 03:36:00,SystemResetWarning,0821.3,5.00,000.00,030.1,029.6,000.0,038.1,031.9,015.7,0000.0,0015.73,0004.19,0003.16
2024-06-04 03:37:00,SystemResetWarning,0821.2,4.99,000.00,029.9,027.6,000.0,038.2,030.8,016.0,0000.0,0015.36,0004.22,0003.16
2024-06-04 03:38:00,SystemResetWarning,0821.1,5.02,000.00,029.5,026.2,000.0,038.2,030.1,016.4,0000.0,0014.70,0004.22,0003.18
2024-06-04 03:39:00,SystemResetWarning,0821.2,4.99,000.00,029.3,026.5,000.0,038.2,030.2,016.5,0000.0,0014.20,0004.28,0003.18
2024-06-04 03:40:00,SystemResetWarning,0821.2,5.00,000.00,029.3,026.9,000.0,038.0,030.5,016.6,0000.0,0015.21,0004.28,0003.17
2024-06-04 03:41:00,SystemResetWarning,0821.2,5.00,000.00,029.3,027.3,000.0,038.0,030.8,016.5,0000.0,0016.06,0004.30,0003.17
2024-06-04 03:42:00,SystemResetWarning,0821.3,5.00,000.00,029.4,027.7,000.0,037.9,030.9,016.5,0000.0,0016.23,0004.29,0003.17
2024-06-04 03:43:00,SystemResetWarning,0821.3,5.00,000.00,029.4,028.0,000.0,037.9,031.0,016.6,0000.0,0016.07,0004.26,0003.18
2024-06-04 03:44:00,SystemResetWarning,0821.3,5.00,000.00,029.5,028.3,000.0,037.9,031.1,016.6,0000.0,0015.92,0004.23,0003.20
2024-06-04 03:45:00,SystemResetWarning,0821.3,5.00,000.00,029.5,028.5,000.0,037.9,031.2,016.5,0000.0,0014.76,0004.19,0003.19
2024-06-04 03:46:00,SystemResetWarning,0821.4,5.00,000.00,029.6,028.7,000.0,037.9,031.3,016.4,0000.0,0013.45,0004.20,0003.18
2024-06-04 03:47:00,SystemResetWarning,0821.3,5.00,000.00,029.6,028.8,000.0,037.9,031.4,016.4,0000.0,0013.67,0004.23,0003.19
2024-06-04 03:48:00,SystemResetWarning,0821.3,5.00,000.00,029.7,029.0,000.0,037.9,031.4,016.4,0000.0,0013.91,0004.24,0003.19
2024-06-04 03:49:00,SystemResetWarning,0821.3,5.00,000.00,029.7,029.1,000.0,037.9,031.5,016.4,0000.0,0014.56,0004.26,0003.18
2024-06-04 03:50:00,SystemResetWarning,0821.3,5.00,000.00,029.8,029.2,000.0,037.9,031.6,016.3,0000.0,0014.65,0004.28,0003.18
2024-06-04 03:51:00,SystemResetWarning,0821.3,4.99,000.00,029.8,029.3,000.0,037.9,031.6,016.3,0000.0,0014.03,0004.32,0003.19
2024-06-04 03:52:00,SystemResetWarning,0821.3,4.99,000.00,029.9,029.3,000.0,038.0,031.7,016.2,0000.0,0013.21,0004.32,0003.19
2024-06-04 03:53:00,SystemResetWarning,0821.3,4.99,000.00,029.9,029.4,000.0,038.0,031.7,016.3,0000.0,0012.87,0004.35,0003.19
2024-06-04 03:54:00,SystemResetWarning,0821.3,4.99,000.00,030.0,029.5,000.0,038.0,031.8,016.3,0000.0,0013.21,0004.32,0003.18
2024-06-04 03:55:00,SystemResetWarning,0821.3,5.01,000.00,030.0,029.5,000.0,038.1,031.9,016.3,0000.0,0013.06,0004.32,0003.16
2024-06-04 03:56:00,SystemResetWarning,0821.2,5.01,000.00,030.1,029.6,000.0,038.1,031.9,016.3,0000.0,0013.61,0004.29,0003.15
2024-06-04 03:57:00,SystemResetWarning,0821.2,5.01,000.00,030.1,029.7,000.0,038.1,031.9,016.3,0000.0,0014.72,0004.30,0003.14
2024-06-04 03:58:00,SystemResetWarning,0821.3,5.00,000.00,030.2,029.7,000.0,038.2,031.9,016.3,0000.0,0014.83,0004.28,0003.13
2024-06-04 03:59:00,SystemResetWarning,0821.3,4.99,000.00,030.2,029.7,000.0,038.2,032.0,016.3,0000.0,0015.03,0004.28,0003.13
